New York, NY

7:52 PM EDT on October 21, 2017 (GMT -0400)
La Guardia

Weather History for KLGA - October, 2012

Change the Weather History Date:

Friday, October 19, 2012

  Actual Average Record
Temperature  
Mean Temperature 65 °F 57 °F  
Max Temperature 68 °F 64 °F 86 °F (2016)
Min Temperature 62 °F 50 °F 32 °F (1940)
Degree Days  
Heating Degree Days 0 8  
Month to date heating degree days 105 113  
Since 1 July heating degree days 114 148  
Cooling Degree Days 0 0  
Month to date cooling degree days 27 20  
Year to date cooling degree days 1511 1210  
Growing Degree Days 15 (Base 50)    
Moisture  
Dew Point 63 °F    
Average Humidity 89    
Maximum Humidity 100    
Minimum Humidity 78    
Precipitation  
Precipitation 0.65 in 0.12 in 3.62 in (1996)
Month to date precipitation 1.78 2.36  
Year to date precipitation 30.45 36.34  
Snow  
Snow 0.00 in 0.00 in - ()
Month to date snowfall 0.0 0.0  
Since 1 July snowfall 0.0 0.0  
Snow Depth 0.00 in    
Sea Level Pressure  
Sea Level Pressure 29.79 in    
Wind  
Wind Speed 12 mph (SSE)    
Max Wind Speed 22 mph    
Max Gust Speed 31 mph    
Visibility 7 miles    
Events Rain    
T = Trace of Precipitation, MM = Missing Value Source: NWS Daily Summary

Daily Weather History Graph

Daily Weather History Graph

Search for Another Location

Airport or City:

Trip Planner

Search our weather history database for the weather conditions in past years. The results will help you decide how hot, cold, wet, or windy it might be!

Date:

Astronomy

Oct. 19, 2012 Rise Set
Actual Time 7:11 AM EDT 6:08 PM EDT
Civil Twilight 6:43 AM EDT 6:36 PM EDT
Nautical Twilight 6:11 AM EDT 7:08 PM EDT
Astronomical Twilight 5:40 AM EDT 7:39 PM EDT
Moon 11:53 AM EDT (10/19) 9:42 PM EDT (10/19)
Length of Visible Light 11h 52m
Length of Day
10h 56m
Waxing Crescent, 23% of the Moon is Illuminated
Oct 19
Waxing Crescent
Oct 21
First Quarter
Oct 29
Full
Nov 6
Last Quarter
Nov 13
New

Hourly Weather History & Observations

Time (EDT) Temp. Dew Point Humidity Pressure Visibility Wind Dir Wind Speed Gust Speed Precip Events Conditions
12:32 AM 64.4 °F 57.2 °F 77% 29.94 in 10.0 mi ESE 10.4 mph - N/A   Overcast
12:42 AM 64.4 °F 57.2 °F 77% 29.94 in 10.0 mi ESE 9.2 mph - N/A   Overcast
12:51 AM 64.0 °F 57.9 °F 80% 29.94 in 10.0 mi ESE 9.2 mph - N/A   Overcast
1:28 AM 64.4 °F 60.8 °F 88% 29.92 in 8.0 mi ESE 6.9 mph - 0.05 in Rain Light Rain
1:44 AM 64.4 °F 62.6 °F 94% 29.92 in 10.0 mi SE 6.9 mph - 0.06 in Rain Light Rain
1:51 AM 64.0 °F 62.1 °F 93% 29.92 in 10.0 mi SSE 6.9 mph - 0.06 in   Overcast
2:17 AM 64.4 °F 62.6 °F 94% 29.92 in 10.0 mi South 20.7 mph 29.9 mph 0.00 in Rain Light Rain
2:51 AM 64.0 °F 61.0 °F 90% 29.90 in 10.0 mi South 16.1 mph 25.3 mph 0.00 in   Overcast
3:17 AM 62.6 °F 60.8 °F 94% 29.88 in 7.0 mi SE 15.0 mph - 0.00 in Rain Rain
3:35 AM 62.6 °F 60.8 °F 94% 29.87 in 7.0 mi South 12.7 mph - 0.03 in Rain Rain
3:51 AM 64.0 °F 62.1 °F 93% 29.88 in 10.0 mi South 10.4 mph 20.7 mph 0.04 in Rain Light Rain
4:13 AM 64.4 °F 62.6 °F 94% 29.86 in 9.0 mi SE 15.0 mph 23.0 mph 0.00 in Rain Light Rain
4:31 AM 64.4 °F 62.6 °F 94% 29.87 in 10.0 mi SE 13.8 mph 24.2 mph 0.00 in   Overcast
4:51 AM 64.0 °F 62.1 °F 93% 29.86 in 10.0 mi ESE 12.7 mph - 0.00 in   Overcast
5:19 AM 64.4 °F 62.6 °F 94% 29.87 in 10.0 mi SE 11.5 mph - N/A   Overcast
5:46 AM 62.6 °F 60.8 °F 94% 29.85 in 5.0 mi SE 17.3 mph 21.9 mph 0.00 in Rain Rain
5:51 AM 62.6 °F 60.8 °F 94% 29.85 in 4.0 mi ESE 15.0 mph 21.9 mph N/A Rain Light Rain
6:33 AM 64.4 °F 60.8 °F 88% 29.85 in 4.0 mi ESE 12.7 mph 18.4 mph 0.17 in Rain Light Rain
6:51 AM 64.9 °F 62.1 °F 90% 29.86 in 10.0 mi SE 18.4 mph 21.9 mph 0.17 in   Overcast
7:51 AM 64.9 °F 63.0 °F 93% 29.84 in 3.0 mi SE 15.0 mph - 0.00 in Rain Light Rain
8:47 AM 64.4 °F 62.6 °F 94% 29.83 in 6.0 mi SE 15.0 mph 23.0 mph 0.04 in Rain Light Rain
8:51 AM 64.9 °F 63.0 °F 93% 29.84 in 5.0 mi SSE 13.8 mph 20.7 mph 0.04 in Rain Light Rain
8:56 AM 64.4 °F 62.6 °F 94% 29.83 in 2.0 mi SSE 12.7 mph - 0.00 in Rain Light Rain
9:34 AM 64.4 °F 64.4 °F 100% 29.83 in 5.0 mi SSE 12.7 mph 23.0 mph 0.09 in Rain Light Rain
9:51 AM 64.9 °F 64.0 °F 97% 29.83 in 7.0 mi SSE 16.1 mph 23.0 mph 0.10 in Rain Light Rain
10:17 AM 66.2 °F 64.4 °F 94% 29.81 in 7.0 mi SSE 10.4 mph 18.4 mph 0.00 in Rain Light Rain
10:51 AM 66.0 °F 64.0 °F 93% 29.80 in 8.0 mi SSE 12.7 mph 25.3 mph 0.01 in Rain Light Rain
11:38 AM 66.2 °F 64.4 °F 94% 29.78 in 10.0 mi SSE 15.0 mph 29.9 mph 0.00 in   Overcast
11:51 AM 66.0 °F 64.0 °F 93% 29.78 in 4.0 mi SSE 15.0 mph 26.5 mph 0.00 in Rain Light Rain
12:51 PM 66.0 °F 64.0 °F 93% 29.76 in 1.8 mi SSE 18.4 mph 31.1 mph 0.14 in Rain Heavy Rain
1:02 PM 66.2 °F 64.4 °F 94% 29.76 in 5.0 mi SSE 21.9 mph 31.1 mph 0.02 in Rain Light Rain
1:51 PM 68.0 °F 64.9 °F 90% 29.75 in 6.0 mi SSE 13.8 mph 24.2 mph 0.07 in Rain Light Rain
2:02 PM 66.2 °F 64.4 °F 94% 29.74 in 10.0 mi SSE 12.7 mph - 0.00 in   Overcast
2:22 PM 66.2 °F 64.4 °F 94% 29.74 in 9.0 mi South 11.5 mph 18.4 mph 0.00 in Rain Light Rain
2:51 PM 66.2 °F 64.4 °F 94% 29.74 in 8.0 mi South 15.0 mph 18.4 mph N/A Rain Light Rain
3:12 PM 66.2 °F 64.4 °F 94% 29.73 in 8.0 mi SSE 15.0 mph 19.6 mph 0.00 in   Overcast
3:21 PM 66.2 °F 64.4 °F 94% 29.72 in 8.0 mi SSE 11.5 mph - 0.00 in   Overcast
3:40 PM 66.2 °F 64.4 °F 94% 29.72 in 8.0 mi SSE 11.5 mph - 0.00 in   Overcast
3:51 PM 66.2 °F 64.4 °F 94% 29.72 in 8.0 mi South 10.4 mph 16.1 mph N/A   Overcast
4:51 PM 68.0 °F 64.9 °F 90% 29.69 in 8.0 mi SSE 9.2 mph - N/A   Overcast
5:08 PM 68.0 °F 64.4 °F 88% 29.68 in 9.0 mi SSE 9.2 mph - N/A   Overcast
5:51 PM 68.0 °F 64.9 °F 90% 29.68 in 10.0 mi South 8.1 mph 17.3 mph N/A   Overcast
6:39 PM 66.2 °F 64.4 °F 94% 29.67 in 10.0 mi South 12.7 mph - N/A   Overcast
6:51 PM 66.0 °F 64.0 °F 93% 29.68 in 9.0 mi South 9.2 mph - N/A   Overcast
7:01 PM 66.2 °F 64.4 °F 94% 29.68 in 9.0 mi South 11.5 mph - N/A   Overcast
7:51 PM 66.0 °F 64.0 °F 93% 29.67 in 8.0 mi SSE 9.2 mph - N/A   Mostly Cloudy
8:51 PM 64.9 °F 64.0 °F 97% 29.67 in 2.5 mi SSE 13.8 mph 18.4 mph N/A   Mostly Cloudy
8:56 PM 66.2 °F 64.4 °F 94% 29.67 in 3.0 mi South 10.4 mph 20.7 mph N/A   Overcast
9:04 PM 64.4 °F 64.4 °F 100% 29.67 in 1.0 mi SSE 16.1 mph 23.0 mph N/A   Overcast
9:44 PM 64.4 °F 64.4 °F 100% 29.67 in 2.0 mi South 11.5 mph 18.4 mph N/A   Overcast
9:51 PM 64.9 °F 64.9 °F 100% 29.68 in 2.0 mi South 6.9 mph 18.4 mph N/A   Overcast
10:51 PM 66.2 °F 64.4 °F 94% 29.68 in 2.0 mi Variable 5.8 mph - N/A   Overcast
11:16 PM 66.2 °F 64.4 °F 94% 29.68 in 3.0 mi Variable 6.9 mph - N/A   Mostly Cloudy
11:51 PM 64.9 °F 64.0 °F 97% 29.69 in 3.0 mi SSE 6.9 mph - N/A   Scattered Clouds